User: anonymous   Login
Location: Sydney
(33.8675°S, 151.2070°E)
Time: 21:35:11
(UTC+11:00)
Language:

Hubble Space Telescope - Orbit

View from above orbital plane
View from above orbital plane
View from above satellite
View from above satellite

Ground track
Ground track

The orbit data is extracted from the following two-line orbital elements,

1 20580U 90037B   19318.41156654  .00000463  00000-0  17245-4 0  9994
2 20580  28.4702 308.4879 0002433 287.1209 206.6071 15.09298191423387
Epoch (UTC): 14 November 2019 09:52:39
Eccentricity: 0.0002433
inclination: 28.4702°
perigee height: 536 km
apogee height: 540 km
right ascension of ascending node: 308.4879°
argument of perigee: 287.1209°
revolutions per day: 15.09298191
mean anomaly at epoch: 206.6071°
orbit number at epoch: 42338

The dashed part of the orbit path shows where the satellite is in the earth's shadow,  

DLR